Delta, LA

7:55 AM CDT on September 27, 2016 (GMT -0500)
Vicksburg Municipal

Weather History for KVKS - March, 2014

Change the Weather History Date:

Wednesday, March 12, 2014

  Actual Average (KTVR) Record (KTVR)
Temperature  
Mean Temperature 53 °F 56 °F  
Max Temperature 62 °F 67 °F 87 °F (2006)
Min Temperature 42 °F 45 °F 26 °F (1948)
Degree Days  
Heating Degree Days 12 9  
Month to date heating degree days 128  
Since 1 July heating degree days 2104  
Cooling Degree Days 0 1  
Month to date cooling degree days 9  
Year to date cooling degree days 18  
Growing Degree Days 3 (Base 50)    
Moisture  
Dew Point 44 °F    
Average Humidity 65    
Maximum Humidity 100    
Minimum Humidity 33    
Precipitation  
Precipitation 0.00 in 0.17 in 2.64 in (1974)
Month to date precipitation 2.19  
Year to date precipitation 12.53  
Sea Level Pressure  
Sea Level Pressure 29.94 in    
Wind  
Wind Speed 10 mph (NW)    
Max Wind Speed 23 mph    
Max Gust Speed 31 mph    
Visibility 9 miles    
Events      
T = Trace of Precipitation, MM = Missing Value Source: NWS Daily Summary

Daily Weather History Graph

Daily Weather History Graph

Search for Another Location

Airport or City:

Trip Planner

Search our weather history database for the weather conditions in past years. The results will help you decide how hot, cold, wet, or windy it might be!

Date:

Astronomy

Mar. 12, 2014 Rise Set
Actual Time 7:17 AM CDT 7:09 PM CDT
Civil Twilight 6:53 AM CDT 7:34 PM CDT
Nautical Twilight 6:24 AM CDT 8:02 PM CDT
Astronomical Twilight 5:56 AM CDT 8:31 PM CDT
Moon 3:49 PM CDT (3/12) 4:39 AM CDT (3/12)
Length of Visible Light 12h 40m
Length of Day
11h 51m
Waxing Gibbous, 85% of the Moon is Illuminated
Mar 12
Waxing Gibbous
Mar 16
Full
Mar 23
Last Quarter
Mar 30
New
Apr 7
First Quarter

Hourly Weather History & Observations

Time (CDT) Temp. Windchill Dew Point Humidity Pressure Visibility Wind Dir Wind Speed Gust Speed Precip Events Conditions
12:15 AM 62.6 °F - 60.8 °F 94% 29.71 in 5.0 mi SSW 4.6 mph - N/A   Mostly Cloudy
12:35 AM 62.6 °F - 60.8 °F 94% 29.70 in 3.0 mi South 5.8 mph - N/A   Mostly Cloudy
12:55 AM 62.6 °F - 62.6 °F 100% 29.69 in 5.0 mi South 6.9 mph - N/A   Mostly Cloudy
1:15 AM 62.6 °F - 62.6 °F 100% 29.70 in 10.0 mi SSW 6.9 mph - N/A   Overcast
1:35 AM 62.6 °F - 60.8 °F 94% 29.69 in 10.0 mi SSW 8.1 mph - N/A   Mostly Cloudy
1:55 AM 62.6 °F - 60.8 °F 94% 29.70 in 9.0 mi SSW 5.8 mph - N/A   Scattered Clouds
2:15 AM 60.8 °F - 60.8 °F 100% 29.70 in 8.0 mi SW 5.8 mph - N/A   Partly Cloudy
2:35 AM 60.8 °F - 60.8 °F 100% 29.70 in 8.0 mi SW 3.5 mph - N/A   Mostly Cloudy
2:55 AM 62.6 °F - 60.8 °F 94% 29.70 in 10.0 mi SW 6.9 mph - N/A   Overcast
3:15 AM 62.6 °F - 60.8 °F 94% 29.70 in 10.0 mi SW 6.9 mph - N/A   Overcast
3:35 AM 60.8 °F - 59.0 °F 94% 29.71 in 9.0 mi SW 8.1 mph - N/A   Overcast
3:55 AM 60.8 °F - 59.0 °F 94% 29.71 in 9.0 mi SW 8.1 mph - N/A   Overcast
4:15 AM 60.8 °F - 59.0 °F 94% 29.71 in 9.0 mi SW 8.1 mph - N/A   Overcast
4:35 AM 60.8 °F - 59.0 °F 94% 29.72 in 8.0 mi SW 10.4 mph - N/A   Overcast
4:55 AM 60.8 °F - 59.0 °F 94% 29.72 in 8.0 mi SW 6.9 mph - N/A   Overcast
5:15 AM 59.0 °F - 57.2 °F 94% 29.72 in 8.0 mi SW 5.8 mph - N/A   Overcast
5:35 AM 59.0 °F - 57.2 °F 94% 29.73 in 7.0 mi SW 6.9 mph - N/A   Overcast
5:55 AM 59.0 °F - 57.2 °F 94% 29.73 in 6.0 mi SW 8.1 mph - N/A   Overcast
6:15 AM 59.0 °F - 57.2 °F 94% 29.75 in 6.0 mi Variable 6.9 mph - N/A   Overcast
6:35 AM 59.0 °F - 57.2 °F 94% 29.76 in 6.0 mi WSW 6.9 mph 12.7 mph N/A   Overcast
6:55 AM 59.0 °F - 57.2 °F 94% 29.77 in 6.0 mi West 4.6 mph - N/A   Overcast
7:15 AM 60.8 °F - 57.2 °F 88% 29.78 in 10.0 mi West 9.2 mph - N/A   Overcast
7:35 AM 60.8 °F - 57.2 °F 88% 29.80 in 9.0 mi WNW 9.2 mph - N/A   Overcast
7:55 AM 60.8 °F - 57.2 °F 88% 29.82 in 9.0 mi NW 9.2 mph 16.1 mph N/A   Overcast
8:15 AM 60.8 °F - 55.4 °F 82% 29.83 in 10.0 mi NNW 17.3 mph 24.2 mph N/A   Overcast
8:35 AM 59.0 °F - 53.6 °F 82% 29.85 in 10.0 mi NNW 18.4 mph 24.2 mph N/A   Overcast
8:55 AM 57.2 °F - 50.0 °F 77% 29.87 in 10.0 mi NNW 19.6 mph 31.1 mph N/A   Overcast
9:15 AM 57.2 °F - 48.2 °F 72% 29.89 in 10.0 mi NNW 18.4 mph 24.2 mph N/A   Mostly Cloudy
9:35 AM 55.4 °F - 44.6 °F 67% 29.91 in 10.0 mi NNW 20.7 mph 27.6 mph N/A   Overcast
9:55 AM 55.4 °F - 44.6 °F 67% 29.93 in 10.0 mi NNW 17.3 mph 23.0 mph N/A   Overcast
10:15 AM 57.2 °F - 44.6 °F 63% 29.94 in 10.0 mi NNW 17.3 mph 23.0 mph N/A   Overcast
10:35 AM 57.2 °F - 46.4 °F 67% 29.95 in 10.0 mi NNW 21.9 mph 29.9 mph N/A   Mostly Cloudy
10:55 AM 57.2 °F - 46.4 °F 67% 29.96 in 10.0 mi North 20.7 mph 26.5 mph N/A   Scattered Clouds
11:15 AM 57.2 °F - 44.6 °F 63% 29.97 in 10.0 mi NNW 20.7 mph 31.1 mph N/A   Mostly Cloudy
11:35 AM 57.2 °F - 42.8 °F 59% 29.99 in 10.0 mi NNW 19.6 mph 27.6 mph N/A   Mostly Cloudy
11:55 AM 57.2 °F - 42.8 °F 59% 30.00 in 10.0 mi North 23.0 mph 29.9 mph N/A   Scattered Clouds
12:15 PM 57.2 °F - 41.0 °F 55% 30.01 in 10.0 mi North 21.9 mph 28.8 mph N/A   Scattered Clouds
12:35 PM 55.4 °F - 41.0 °F 58% 30.02 in 10.0 mi NNW 18.4 mph 25.3 mph N/A   Mostly Cloudy
12:55 PM 57.2 °F - 41.0 °F 55% 30.02 in 10.0 mi NNW 19.6 mph 26.5 mph N/A   Partly Cloudy
1:15 PM 57.2 °F - 39.2 °F 51% 30.03 in 10.0 mi NNW 18.4 mph 28.8 mph N/A   Partly Cloudy
1:35 PM 59.0 °F - 39.2 °F 48% 30.03 in 10.0 mi NNW 16.1 mph 25.3 mph N/A   Clear
1:55 PM 59.0 °F - 37.4 °F 45% 30.02 in 10.0 mi North 21.9 mph 28.8 mph N/A   Clear
2:15 PM 59.0 °F - 37.4 °F 45% 30.03 in 10.0 mi NNW 20.7 mph 31.1 mph N/A   Clear
2:35 PM 59.0 °F - 37.4 °F 45% 30.02 in 10.0 mi North 19.6 mph 28.8 mph N/A   Clear
2:55 PM 59.0 °F - 37.4 °F 45% 30.02 in 10.0 mi NNW 18.4 mph 24.2 mph N/A   Clear
3:15 PM 59.0 °F - 37.4 °F 45% 30.03 in 10.0 mi NW 16.1 mph 26.5 mph N/A   Clear
3:35 PM 59.0 °F - 35.6 °F 42% 30.03 in 10.0 mi North 12.7 mph 21.9 mph N/A   Clear
3:55 PM 60.8 °F - 35.6 °F 39% 30.04 in 10.0 mi North 18.4 mph 24.2 mph N/A   Clear
4:15 PM 59.0 °F - 32.0 °F 36% 30.04 in 10.0 mi North 15.0 mph 26.5 mph N/A   Clear
4:35 PM 59.0 °F - 32.0 °F 36% 30.05 in 10.0 mi NNW 18.4 mph 28.8 mph N/A   Clear
4:55 PM 59.0 °F - 30.2 °F 34% 30.05 in 10.0 mi North 17.3 mph 24.2 mph N/A   Clear
5:15 PM 59.0 °F - 32.0 °F 36% 30.05 in 10.0 mi North 20.7 mph 27.6 mph N/A   Clear
5:35 PM 59.0 °F - 30.2 °F 34% 30.06 in 10.0 mi North 17.3 mph 25.3 mph N/A   Clear
5:55 PM 57.2 °F - 30.2 °F 36% 30.07 in 10.0 mi North 17.3 mph 24.2 mph N/A   Clear
6:15 PM 57.2 °F - 30.2 °F 36% 30.08 in 10.0 mi North 13.8 mph 21.9 mph N/A   Clear
6:35 PM 55.4 °F - 30.2 °F 38% 30.09 in 10.0 mi North 18.4 mph - N/A   Clear
6:55 PM 55.4 °F - 26.6 °F 33% 30.10 in 10.0 mi North 19.6 mph 29.9 mph N/A   Clear
7:15 PM 53.6 °F - 26.6 °F 35% 30.11 in 10.0 mi North 11.5 mph 18.4 mph N/A   Clear
7:35 PM 51.8 °F - 28.4 °F 41% 30.12 in 10.0 mi North 10.4 mph 17.3 mph N/A   Clear
7:55 PM 51.8 °F - 26.6 °F 38% 30.13 in 10.0 mi North 12.7 mph - N/A   Clear
8:15 PM 50.0 °F - 28.4 °F 43% 30.14 in 10.0 mi North 9.2 mph - N/A   Clear
8:35 PM 50.0 °F - 28.4 °F 43% 30.14 in 10.0 mi North 9.2 mph - N/A   Clear
8:55 PM 50.0 °F - 28.4 °F 43% 30.15 in 10.0 mi North 8.1 mph - N/A   Clear
9:15 PM 50.0 °F - 28.4 °F 43% 30.16 in 10.0 mi NNE 6.9 mph 15.0 mph N/A   Clear
9:35 PM 50.0 °F - 28.4 °F 43% 30.17 in 10.0 mi NNE 6.9 mph 12.7 mph N/A   Clear
9:55 PM 48.2 °F - 28.4 °F 46% 30.18 in 10.0 mi NNE 5.8 mph - N/A   Clear
10:15 PM 50.0 °F - 28.4 °F 43% 30.18 in 10.0 mi NNE 4.6 mph - N/A   Clear
10:35 PM 48.2 °F - 26.6 °F 43% 30.18 in 10.0 mi NNE 4.6 mph - N/A   Clear
10:55 PM 48.2 °F - 26.6 °F 43% 30.19 in 10.0 mi Calm Calm - N/A   Clear
11:15 PM 46.4 °F 45.2 °F 26.6 °F 46% 30.19 in 10.0 mi NNE 3.5 mph - N/A   Clear
11:35 PM 44.6 °F - 30.2 °F 57% 30.20 in 10.0 mi Calm Calm - N/A   Clear
11:55 PM 42.8 °F - 30.2 °F 61% 30.20 in 10.0 mi Calm Calm - N/A   Clear